星链-6162 (STARLINK-6162 )

导读 | 豆包AI

STARLINK-6162是美国太空探索技术公司(SpaceX)星链互联网星座中的一颗卫星,于2023年6月23日发射入轨,是星链批量化生产组网的一员,旨在为全球覆盖提供高速低延迟互联网服务,尤其服务偏远地区和网络基础设施薄弱区域。

基本信息
目录编号:
57131
目录名称:
STARLINK-6162
国际标识:
2023-090AG
轨道中心:
EARTH
卫星名称:
星链-6162
卫星全名:
星链-6162 (STARLINK-6162 )
卫星状态:
在轨 (已飞行996 天)
发射日期:
2023-06-23 UTC
国别 :
美国 (US)
星等 :
--
轨道信息
数据来源 国际轨道数据
星历时间: 2026-03-15T22:00:02+0800
7小时前
查看轨道信息
半长轴: 6888.349km
偏心率: 0.0002237
轨道倾角: 43.000°
近地点辐角 264.737°
升交点赤经 229.290°
平近点角 98.159°
近地点: 508.671km
远地点: 511.753km
周期: 94.827分钟
每日圈数: 15.185534
详细信息
固有亮度:
5
最大亮度:
2.4
卫星平台:
Starlink v1.5
覆盖范围:
全球
运营商:
太空探索技术公司
运营商所在国:
美国
制造商(研发单位):
太空探索技术公司
制造商所在国:
美国
使用方式:
暂无
卫星简介
星链(Starlink)计划是由太空探索技术公司(SpaceX)提出的一个巨型低轨卫星互联网星座项目,计划在2019年至2024年间在太空搭建由约1.2万颗卫星组成的“星链”网络,其中1584颗将部署在地球上空550千米处的近地轨道,并从2020年开始工作。该卫星仍在工作。
2D轨道图
3D轨道图
轨道高度分析图
轨道倾角分析图
轨道综合分析图
查看轨道综合分析图